Orbital elements:
2003 AJ73
Epoch 2004 July 14.0 TT = JDT 2453200.5                 MPC
M 196.43044              (2000.0)            P               Q
n   0.40412141     Peri.  168.67144     -0.99366248     -0.11142532
a   1.8118746      Node     5.00266     +0.08521551     -0.83265015
e   0.3494828      Incl.    9.77674     +0.07330202     -0.54247407
P   2.44           H   18.6           G   0.15           U   1
Residuals in seconds of arc
030111 704  0.0   1.1+    030305 084  0.2-  0.6-    030323 240  0.4-  0.3+
030111 704  0.1+  0.7+    030305 938  0.2-  0.0     030323 240  0.4-  0.2+
030111 704  0.4-  0.3+    030305 938  0.4-  0.3-    030323 240  0.4-  0.0
030111 704  0.3-  0.7+    030305 938  0.0   0.1+    030323 240  0.4-  0.2+
030112 946 (3.3+  0.3-)   030305 938  0.6-  0.5+    030323 A28  0.1+  0.4-
030112 198 (2.1+  0.3+)   030305 938  0.5-  0.2+    030323 A28  0.4-  0.0
030112 946  2.0+  0.1-    030305 938  0.1-  0.2+    030323 A28  0.1-  0.2-
030112 198  0.2+  0.2+    030305 938  0.2-  0.0     030323 A28  0.3-  0.4-
030112 946  0.0   1.0-    030305 938  0.1+  0.1-    030323 A28  0.3-  0.1-
030112 198  0.8-  0.1+    030305 938  0.3-  0.2+    030323 A28  0.2-  0.2-
030112 946  0.4+  1.1-    030306 670  0.3-  0.3-    030323 A28  0.1-  0.2-
030112 246  0.0   0.5+    030306 670  1.0-  0.2-    030323 A28  0.3-  0.1+
030112 246  0.0   0.3+    030306 084  0.9-  0.5-    030324 691  0.4-  1.2+
030112 246  0.3+  0.0     030307 084  0.5-  0.5+    030324 291  0.6-  0.1+
030112 246  0.6+  0.1+    030308 333  0.6-  0.2-    030324 291  0.3-  0.1-
030112 246  0.3+  0.8+    030308 704  0.5+  0.6+    030324 291  0.3-  0.2-
030112 170  0.1+  0.3+    030308 333  0.2-  0.6-    030324 691  0.3-  1.2+
030112 118  0.3+  0.4-    030308 704  0.4+  0.8+    030324 691  0.2-  0.9+
030112 118  0.7+  0.0     030308 704  0.4+  0.8+    030324 639  0.1+  0.8+
030112 J95  0.0   0.0     030308 333  0.3-  0.6-    030324 639  1.6+  0.6+
030112 118  0.1+  0.1-    030308 704  0.3+  0.8+    030324 639  0.3+  0.4-
030112 118  0.2+  0.1+    030308 333  0.0   0.2-    030324 639  0.1-  0.6+
030112 J95  0.1-  0.3-    030308 704  0.6+  0.8+    030324 639  0.3-  0.2-
030112 J95  0.4+  0.3+    030308 644  0.4-  0.1-    030324 639  0.4+  0.7+
030112 170  0.5+  0.7-    030308 644  0.3-  0.1-    030325 379  0.9-  0.0
030112 170  1.2+  0.2-    030308 644  0.5-  0.1-    030325 379  0.2-  1.1+
030112 170  0.7-  0.6-    030308 J87  0.8+  0.1+    030325 379  0.2+  0.7+
030112 170  0.8+  1.0+    030308 J87  0.2+  0.1-    030325 469  0.4-  0.3+
030112 557  0.1-  0.5-    030308 J87  1.1-  0.3-    030325 469  0.2-  0.2+
030112 557  0.1-  0.6-    030308 J87  1.5+  0.4+    030325 469  0.4-  0.0
030112 557  0.1+  0.5+    030309 170  0.6-  0.8+    030325 469  0.2-  0.1+
030112 704  0.1-  0.6+    030309 170  0.1-  0.1-    030325 469  0.3-  0.0
030112 704  0.0   1.3+    030309 084  0.3-  0.0     030325 469  0.0   0.3+
030112 858  1.6-  0.9-    030309 333 (1.0-  2.3-)   030325 084  0.1+  0.7+
030112 858  1.2-  0.1-    030309 333 (0.6-  3.6-)   030326 644  0.0   0.1+
030112 704  0.3+  0.8+    030309 333 (0.7-  2.6-)   030326 644  0.1-  0.1-
030112 704  0.3+  1.0+    030309 333 (1.0-  2.9-)   030326 644  0.1+  0.0
030112 704  0.1+  1.5+    030309 333  0.0   0.4-    030326 699  0.5-  0.4-
030112 704  0.0   1.8+    030309 333  0.0   0.6-    030326 699  0.5-  0.3-
030112 704  0.0   1.4+    030309 333  0.3+  0.4+    030326 699  0.4-  0.2-
030112 704  0.1+  0.6+    030309 333  0.3+  0.2+    030326 699  0.4-  0.3-
030112 704  0.1+  0.9+    030310 379  0.1-  0.1-    030326 379  0.3-  0.6+
030112 240  0.5+  0.5+    030310 379  0.5+  0.2-    030326 379  1.0+  0.6+
030112 240  0.5+  0.3+    030310 379  0.3+  0.9+    030326 379  0.1-  1.2+
030112 240  0.2+  0.2+    030310 379  0.6+  0.3-    030326 379  0.3+  0.6-
030113 704  0.2+  0.4+    030312 704  0.3+  0.8+    030326 379  0.8+  0.1-
030113 704  0.1+  0.3+    030312 704  0.2+  0.8+    030326 300  1.0-  0.9+
030113 704  0.0   0.3+    030312 704  0.4+  0.9+    030326 300  0.1-  0.4+
030113 704  0.5-  0.6+    030312 704  0.3+  0.7+    030326 300  0.9-  1.0+
030113 704  0.4+  0.3+    030312 670  0.4-  0.1+    030326 300  1.5-  1.4+
030113 704  0.2-  0.7+    030312 704  0.6+  0.7+    030326 A50  0.4-  0.2-
030113 704  0.4+  0.2+    030312 670  0.2-  0.0     030326 A50  0.8-  1.7-
030113 704  0.3-  0.6+    030312 670  0.3-  0.0     030326 A50  0.1-  0.6-
030113 704  0.6+  0.3+    030312 379  0.6-  0.1-    030326 071  0.3+  0.4-
030117 540  0.6-  0.4+    030312 379  1.0-  0.7+    030326 A50  0.5-  0.0
030117 540  0.5-  0.2+    030312 379  0.5+  0.3-    030326 071  0.1+  0.6+
030117 540  0.3-  0.5-    030312 322  0.6-  0.2+    030326 071  0.2-  0.5-
030125 170  0.4-  0.1+    030312 322  0.6-  0.1+    030326 A50  0.6-  0.3+
030125 170  1.1-  0.3-    030312 322  0.5-  0.0     030326 084  0.1+  1.0+
030125 170  0.3+  0.3+    030313 379  0.4-  0.5-    030327 084  0.4-  1.0+
030125 170  0.0   0.3-    030313 379  0.2-  0.3-    030327 A50  0.2-  0.0
030125 170  0.0   0.1+    030313 198  0.4-  0.2-    030327 A50 (1.2+  3.5-)
030125 170  0.3-  0.7-    030313 127  0.2-  0.2+    030327 A50  1.3+  0.8-
030125 704  1.1+  0.3+    030313 198  0.6-  0.5-    030328 084  0.1-  0.2-
030125 734  0.0   0.2+    030313 127  0.3-  0.1+    030328 557  0.3-  0.5-
030125 704  0.6+  0.8+    030313 198  0.4-  0.4-    030328 557  0.1-  0.5-
030125 734  0.3+  0.2-    030313 127  0.5-  0.2+    030328 557  0.2-  0.3-
030125 734  0.3-  0.0     030313 198  0.5-  0.0     030328 557  0.3-  0.2-
030125 704  0.9+  0.4+    030313 127  0.4-  0.1+    030328 557  0.1-  0.2-
030125 704  0.8+  0.0     030313 127  0.3-  0.2-    030329 A50  0.1+  1.0-
030125 704  0.5+  0.6+    030313 J93  0.7-  0.8-    030329 939  0.0   0.8-
030126 941  0.5+  0.1+    030313 J93  0.2-  0.1-    030329 A50  0.3+  1.0-
030126 941  0.1-  0.3+    030313 J93  0.1+  0.1-    030329 939  0.3-  0.5-
030126 941  0.0   0.1+    030313 J93  0.1-  0.4-    030329 939  0.6-  0.3-
030126 941  0.5-  0.1-    030314 185  0.5-  0.0     030329 557  0.2-  0.3-
030126 941  0.2+  0.2-    030314 185  0.5-  0.5-    030329 557  0.0   0.3-
030126 118  0.0   0.3-    030314 185  0.5-  0.3-    030329 J87  1.4-  0.1-
030126 118  0.2-  0.0     030314 185  0.5-  0.2-    030329 J87  0.2+  0.3-
030126 118  1.0-  0.8-    030314 185  0.4-  0.3-    030329 J87  0.1-  0.3-
030131 644  0.1-  0.2+    030314 185  0.5-  0.2-    030329 291  0.3-  0.1+
030131 644  0.2-  0.1+    030314 J93  0.7-  0.5-    030329 291  0.4-  0.1-
030131 644  0.1-  0.1-    030314 J93  0.1+  0.3-    030329 291  0.7-  0.4-
030203 670  0.1-  0.5-    030314 J93  0.1-  0.1-    030329 084  0.1+  0.1+
030203 670  0.4-  0.4-    030314 J93  0.3-  0.2+    030330 355  0.6-  0.4-
030203 670  1.4+  0.3+    030314 J93  0.1-  0.6-    030330 355  0.1-  0.2-
030204 084  0.7-  0.3+    030314 198  0.9-  0.3-    030330 355  0.1-  0.7-
030205 A31 (2.6-  0.7-)   030314 198  0.4-  0.2+    030330 355  0.1+  0.3-
030205 A31 (3.2+  0.7-)   030314 198  0.4-  0.0     030330 J93  0.0   0.1+
030206 670  0.1+  0.2+    030315 198  0.3-  0.3-    030330 J93  0.3+  0.8-
030206 670  0.3-  0.1+    030315 198  0.1-  0.3-    030330 J93  0.0   0.2+
030209 046  0.3-  0.6-    030316 198  0.1-  0.0     030330 J93  0.5+  0.1+
030209 046  0.6-  0.1+    030316 198  0.1-  0.4-    030330 J93  0.1-  0.0
030209 046  0.8-  0.1-    030316 198  0.2-  0.3-    030401 750  0.0   0.1+
030209 046  0.8-  0.2-    030316 198  0.2+  0.1+    030401 750  0.1-  0.0
030209 046  0.7-  0.1-    030316 198  0.5+  0.4-    030401 750  0.1+  0.1-
030210 704  0.1+  0.2+    030316 198  0.4+  0.3-    030401 750  0.1+  0.1-
030210 704  0.2+  0.2+    030319 670  0.2-  0.3-    030401 J87  1.2+  0.0
030210 704  0.7+  0.0     030319 670  0.0   0.1-    030401 J87  1.4+  0.2-
030210 704  0.9+  0.3-    030319 670  0.4-  0.5-    030401 J87  0.8-  0.2-
030210 704  0.7+  0.4-    030319 560  0.4+  1.0+    030401 552  0.1+  0.1-
030211 704  0.3+  0.3+    030319 560  0.1+  0.3+    030401 552  0.1+  0.1+
030211 704  0.3+  0.1-    030319 560  0.2-  0.5+    030401 552  0.1+  0.0
030211 704  0.9+  0.1+    030319 560  0.1+  0.4+    030401 552  0.5+  0.1-
030211 704  0.9+  0.5-    030319 560  0.6+  0.8+    030401 552  0.2+  0.3+
030211 704  0.4+  0.3-    030319 203  0.5-  0.1+    030401 552  0.2+  0.2-
030213 240  0.5+  0.7-    030319 203  0.5-  0.6-    030401 552  0.4+  0.1-
030213 240  0.0   0.4-    030319 203  0.7+  0.5-    030401 552  0.4+  0.4-
030213 240  0.1-  0.1-    030320 151  0.2-  0.1+    030401 552  0.2+  0.3-
030213 198  0.9+  0.5+    030320 151  0.1+  0.1+    030401 084  0.4+  0.3+
030213 198  0.8+  0.3+    030320 151  0.1-  0.1-    030402 084  0.1+  0.2+
030213 198  0.6+  0.2+    030320 151  0.2-  0.1-    030403 712  0.5+  0.6+
030213 198  0.6-  0.3+    030320 151  0.1-  0.2-    030403 712  0.6+  0.2-
030213 198  0.2-  0.1-    030320 057  1.0+  0.2+    030403 712  0.9-  0.7+
030219 151  0.3-  0.2+    030320 057 (3.8+  1.6+)   030403 170  0.1-  0.1-
030219 151  0.5-  0.0     030320 057  0.2-  1.2+    030403 170  0.1-  0.4+
030219 151  0.2-  0.0     030320 057  0.4+  1.1+    030404 J87  0.8+  0.3+
030219 151  0.4-  1.1+    030320 057  0.6+  0.2+    030404 J87  0.1+  0.2-
030219 240  0.4-  0.4-    030320 057 (3.4-  1.1-)   030404 J87  0.2-  0.2+
030219 240  0.4-  0.1-    030320 057  0.4-  1.3-    030405 704  0.2+  0.2-
030219 240  0.3-  0.2+    030320 203  0.1-  0.2-    030405 704  0.2+  0.2-
030221 552  0.2+  0.1-    030320 057 (2.1-  0.9+)   030405 704  0.4+  0.1+
030221 552  0.5-  0.2-    030320 203  0.2-  0.2-    030405 704  0.6+  0.3+
030221 552  0.1+  0.6+    030320 552  0.1+  0.1+    030405 J93  0.1-  1.1-
030221 670  0.0   0.5-    030320 552  0.1+  0.0     030405 J93  0.2+  2.0-
030221 670  0.2-  0.7-    030320 552  0.1-  0.2+    030405 J93  0.5+  0.5-
030221 670  0.0   1.1-    030320 560  0.1+  0.5+    030405 232  0.0   0.5+
030221 644  0.1-  0.4-    030320 560  0.0   0.0     030405 232  0.5+  0.3+
030221 644  0.1-  0.4-    030320 552  0.3+  0.0     030405 232  0.9+  0.4+
030221 644  0.2-  0.4-    030320 560  0.7+  0.5+    030406 750  0.1+  0.2-
030222 198  0.4-  0.2+    030320 560  0.3+  0.4+    030406 750  0.1-  0.1-
030222 198  0.5-  0.2-    030320 560  0.3+  0.9+    030406 750  0.7+  0.2-
030223 198  0.4-  0.1-    030320 552  0.1-  0.4-    030406 379  0.2-  0.1+
030223 198  0.2-  0.2+    030320 552  0.5-  0.2+    030406 379  0.8+  0.2+
030223 198  0.1-  0.0     030320 552  0.1+  0.0     030406 379  0.1+  0.5+
030223 240  0.1-  0.2-    030320 552  0.3+  0.2-    030406 379  0.2+  0.7-
030223 240  0.2-  0.3-    030320 203  0.0   0.5-    030406 151  0.2+  0.3-
030223 240  0.2-  0.2-    030320 552  0.4-  0.3-    030406 151  0.1+  0.2-
030223 240  0.1-  0.2-    030321 084  0.7+  0.0     030406 151  0.2-  0.4+
030223 240  0.1-  0.2-    030321 608  0.2+  0.2-    030406 151  0.0   0.2+
030223 240  0.1-  0.2-    030321 608  0.2+  0.0     030406 151  0.3+  0.4-
030223 240  0.1-  0.3-    030321 608  0.1+  0.0     030406 151  0.3+  0.4-
030223 240  0.0   0.4-    030321 557  0.2-  0.1-    030406 151  0.3+  0.5-
030223 240  0.1+  0.2-    030321 J87  0.2-  0.0     030406 151  0.2+  0.5-
030223 A30  0.8+  0.7-    030321 J87  0.4-  0.5+    030406 151  0.2+  0.3-
030223 A30  0.4+  1.1-    030321 J87  2.0-  0.1+    030406 151  0.2+  0.5-
030223 A30  0.3+  0.5-    030321 557  0.1-  0.0     030407 670  0.2+  0.1-
030223 A30  1.1+  1.5-    030321 196  1.1+  0.3+    030407 670  0.1-  0.1-
030223 A30  0.3+  0.2-    030321 196  0.1+  0.2+    030407 670  0.1-  0.2-
030224 552  0.1-  0.3-    030321 203  0.4+  0.5-    030408 704  0.3+  0.4+
030224 552  0.1-  0.3-    030321 203  0.2+  0.3+    030408 704  0.1+  0.3+
030224 552  0.1-  0.1-    030321 557  0.0   0.3-    030408 704  0.1-  0.2+
030224 552  0.1-  0.0     030321 084  0.3+  0.5+    030408 704  0.2+  0.1+
030224 552  0.1-  0.2-    030321 557  0.1+  0.2+    030408 704  0.4+  0.4+
030224 552  0.0   0.2+    030321 176  0.2+  0.3+    030408 084  1.0+  0.3-
030224 552  0.1-  0.2-    030321 176  0.1+  0.2+    030410 712  0.8+  0.1-
030224 552  0.2+  0.0     030321 176  0.1+  0.2+    030410 712  0.6+  0.7+
030224 552  0.3-  0.0     030321 176  0.1+  0.2+    030410 712  0.4+  0.2+
030224 552  0.1-  0.3-    030321 176  0.0   0.1+    030411 712  0.0   0.6+
030224 204  0.0   0.3-    030321 176  0.1+  0.1+    030411 712  0.0   0.3+
030224 204  0.4-  0.3-    030321 176  0.1+  0.1+    030411 084  0.7+  0.1+
030224 204  0.3-  0.4-    030321 176  0.0   0.1+    030417 151  0.1-  0.0
030224 204  0.3-  0.3-    030322 557  0.1-  0.1-    030417 151  0.4-  0.7+
030224 127  0.0   0.1+    030322 557  0.1+  0.1+    030417 151  0.1-  0.2+
030224 127  0.1-  0.1-    030322 557  0.1+  0.5+    030417 151  0.4-  0.2+
030224 127  0.1-  0.2-    030322 145  0.0   0.1+    030417 151  0.5+  0.1-
030225 198  1.4+  1.7-    030322 145  0.1-  0.1-    030417 151  0.2-  0.1+
030225 198  1.2+  1.7-    030322 145  0.1+  0.3+    030417 151  0.1-  0.1+
030225 198  1.1+  1.5-    030322 145  0.0   0.4-    030417 151  0.3+  0.4-
030225 198  0.1+  0.0     030322 145  0.1+  0.2+    030419 118  0.7+  0.1+
030225 215  0.1+  0.1-    030322 145  0.5+  0.1+    030419 118  0.4-  0.0
030225 215  0.1-  0.3+    030322 560  1.5+  1.4+    030419 118  0.9+  0.4-
030225 215  0.1+  0.2+    030322 560  0.3+  1.0+    030423 170  0.1+  0.0
030226 704  0.1-  0.4-    030322 560  0.1+  0.9+    030423 170  0.2+  0.1+
030226 704  0.0   0.3-    030322 560 (0.7+  3.0+)   030426 071 (2.5+  0.7-)
030226 704  0.1-  0.6-    030322 560  0.5+  0.6+    030426 071  0.4-  1.0+
030226 704  0.0   0.2-    030322 557  0.1+  0.3+    030426 071  0.6+  0.0
030226 704  0.5+  0.9-    030322 557  0.6+  0.5+    030426 071  0.7+  0.1+
030226 704  0.1+  0.3-    030323 113  0.3+  0.8+    030427 608  0.1+  0.5-
030226 704  0.3+  0.7-    030323 113  0.1+  0.3+    030427 608  0.1-  0.5-
030226 704  0.8+  0.0     030323 113  0.2+  0.1+    030427 608  0.1-  0.6-
030226 704  0.3+  0.9-    030323 113  0.0   0.6-    030430 704  0.2-  0.2-
030226 704  1.9+  0.0     030323 113  0.4+  0.3+    030430 704  0.1-  0.1-
030302 J93  0.1+  0.4-    030323 113  0.2+  0.2+    030430 704  0.4-  0.3+
030302 J93  0.5-  0.4-    030323 113  0.2+  0.2+    030430 704  0.3-  0.6-
030302 J93  0.3-  0.8-    030323 113  0.2+  0.2+    030430 704  0.2+  0.7+
030302 J93  0.0   0.1-    030323 113  0.1+  0.3+    030511 608  0.4+  0.6-
030302 J93  0.2+  0.1-    030323 113  0.5+  0.3+    030511 608  0.0   0.7-
030302 084  0.3-  0.2+    030323 113  0.1+  0.0     030511 608  0.3+  0.5-
030303 300  0.5-  0.8+    030323 113  0.8+  0.3-    030519 428  0.1-  0.5-
030303 300  0.8-  0.7+    030323 113  0.3+  0.2+    030519 428  1.5+  0.8-
030303 300  0.1-  0.2+    030323 113  0.2+  0.3+    040917 291  0.3-  0.6+
030303 300  0.8-  0.9-    030323 113  0.2+  1.0+    040917 291  0.1-  0.2+
030303 300  0.3-  0.1+    030323 379  0.0   0.2+    040917 291  0.5-  0.4-
030303 300  0.1-  0.5+    030323 379  0.1+  0.3+    041007 291  0.6+  0.3+
030304 322  0.3-  0.2-    030323 379  0.7-  0.2+    041007 291  0.4+  0.3+
030304 322  0.4-  0.4+    030323 379  0.3+  0.2-    041007 291  0.1-  0.6-
030304 322  0.3-  0.3-    030323 240  0.5-  0.0
030304 084  0.7-  0.5-    030323 240  0.5-  0.1+

